Location: *
(47.6569°N, 7.4256°E)
Time: 12:46:52
(UTC+00:00)

Cosmos 407 Rocket - Pass Details

Date: 14 December 2019
Orbit: 743 x 787 km, 74.0° (Epoch: 18 January)

Event Time Altitude Azimuth Distance (km) Brightness Sun altitude
Rises 16:56:33 0° 190° (S) 3,196 7.2 -12.4°
Reaches altitude 10° 16:58:54 10° 187° (S) 2,282 6.3 -12.8°
Maximum altitude 17:04:00 61° 107° (ESE) 867 3.5 -13.6°
Enters shadow 17:08:47 12° 29° (NNE) 2,172 5.4 -14.4°
